Year,Month,Day,Hour,Minute,Value (Times are PST for temperature in C)
2014,07,11,00,00,16.20
2014,07,11,00,01,16.20
2014,07,11,00,02,16.20
2014,07,11,00,03,16.20
2014,07,11,00,04,16.10
2014,07,11,00,05,16.10
2014,07,11,00,06,16.10
2014,07,11,00,07,16.10
2014,07,11,00,08,16.10
2014,07,11,00,09,16.10
2014,07,11,00,10,16.10
2014,07,11,00,11,16.10
2014,07,11,00,12,16.10
2014,07,11,00,13,16.10
2014,07,11,00,14,16.10
2014,07,11,00,15,16.20
2014,07,11,00,16,16.20
2014,07,11,00,17,16.10
2014,07,11,00,18,16.10
2014,07,11,00,19,16.10
2014,07,11,00,20,16.10
2014,07,11,00,21,16.10
2014,07,11,00,22,16.10
2014,07,11,00,23,16.00
2014,07,11,00,24,16.00
2014,07,11,00,25,16.00
2014,07,11,00,26,15.90
2014,07,11,00,27,15.90
2014,07,11,00,28,15.90
2014,07,11,00,29,15.90
2014,07,11,00,30,15.80
2014,07,11,00,31,15.80
2014,07,11,00,32,15.80
2014,07,11,00,33,15.80
2014,07,11,00,34,15.70
2014,07,11,00,35,15.70
2014,07,11,00,36,15.70
2014,07,11,00,37,15.70
2014,07,11,00,38,15.70
2014,07,11,00,39,15.70
2014,07,11,00,40,15.60
2014,07,11,00,41,15.60
2014,07,11,00,42,15.60
2014,07,11,00,43,15.60
2014,07,11,00,44,15.60
2014,07,11,00,45,15.50
2014,07,11,00,46,15.50
2014,07,11,00,47,15.50
2014,07,11,00,48,15.50
2014,07,11,00,49,15.40
2014,07,11,00,50,15.40
2014,07,11,00,51,15.40
2014,07,11,00,52,15.40
2014,07,11,00,53,15.40
2014,07,11,00,54,15.40
2014,07,11,00,55,15.30
2014,07,11,00,56,15.30
2014,07,11,00,57,15.30
2014,07,11,00,58,15.30
2014,07,11,00,59,15.30
2014,07,11,01,00,15.30
2014,07,11,01,01,15.20
2014,07,11,01,02,15.20
2014,07,11,01,03,15.20
2014,07,11,01,04,15.20
2014,07,11,01,05,15.10
2014,07,11,01,06,15.10
2014,07,11,01,07,15.10
2014,07,11,01,08,15.00
2014,07,11,01,09,15.00
2014,07,11,01,10,15.00
2014,07,11,01,11,15.00
2014,07,11,01,12,15.00
2014,07,11,01,13,15.00
2014,07,11,01,14,15.00
2014,07,11,01,15,15.00
2014,07,11,01,16,15.00
2014,07,11,01,17,15.00
2014,07,11,01,18,15.00
2014,07,11,01,19,15.00
2014,07,11,01,20,15.00
2014,07,11,01,21,15.00
2014,07,11,01,22,15.00
2014,07,11,01,23,15.00
2014,07,11,01,24,15.00
2014,07,11,01,25,15.00
2014,07,11,01,26,15.00
2014,07,11,01,27,15.00
2014,07,11,01,28,14.90
2014,07,11,01,29,14.90
2014,07,11,01,30,14.90
2014,07,11,01,31,14.90
2014,07,11,01,32,14.90
2014,07,11,01,33,14.90
2014,07,11,01,34,14.90
2014,07,11,01,35,14.90
2014,07,11,01,36,14.90
2014,07,11,01,37,14.90
2014,07,11,01,38,14.90
2014,07,11,01,39,14.90
2014,07,11,01,40,14.90
2014,07,11,01,41,14.90
2014,07,11,01,42,14.90
2014,07,11,01,43,14.90
2014,07,11,01,44,14.90
2014,07,11,01,45,14.90
2014,07,11,01,46,14.90
2014,07,11,01,47,14.90
2014,07,11,01,48,14.90
2014,07,11,01,49,14.90
2014,07,11,01,50,14.80
2014,07,11,01,51,14.80
2014,07,11,01,52,14.80
2014,07,11,01,53,14.80
2014,07,11,01,54,14.80
2014,07,11,01,55,14.80
2014,07,11,01,56,14.80
2014,07,11,01,57,14.80
2014,07,11,01,58,14.80
2014,07,11,01,59,14.80
2014,07,11,02,00,14.80
2014,07,11,02,01,14.80
2014,07,11,02,02,14.80
2014,07,11,02,03,14.80
2014,07,11,02,04,14.70
2014,07,11,02,05,14.70
2014,07,11,02,06,14.70
2014,07,11,02,07,14.70
2014,07,11,02,08,14.70
2014,07,11,02,09,14.60
2014,07,11,02,10,14.60
2014,07,11,02,11,14.60
2014,07,11,02,12,14.60
2014,07,11,02,13,14.60
2014,07,11,02,14,14.50
2014,07,11,02,15,14.50
2014,07,11,02,16,14.40
2014,07,11,02,17,14.40
2014,07,11,02,18,14.40
2014,07,11,02,19,14.40
2014,07,11,02,20,14.40
2014,07,11,02,21,14.40
2014,07,11,02,22,14.40
2014,07,11,02,23,14.40
2014,07,11,02,24,14.40
2014,07,11,02,25,14.40
2014,07,11,02,26,14.40
2014,07,11,02,27,14.40
2014,07,11,02,28,14.40
2014,07,11,02,29,14.40
2014,07,11,02,30,14.30
2014,07,11,02,31,14.30
2014,07,11,02,32,14.30
2014,07,11,02,33,14.30
2014,07,11,02,34,14.20
2014,07,11,02,35,14.20
2014,07,11,02,36,14.20
2014,07,11,02,37,14.20
2014,07,11,02,38,14.10
2014,07,11,02,39,14.10
2014,07,11,02,40,14.00
2014,07,11,02,41,14.00
2014,07,11,02,42,14.00
2014,07,11,02,43,13.90
2014,07,11,02,44,13.90
2014,07,11,02,45,13.90
2014,07,11,02,46,13.80
2014,07,11,02,47,13.80
2014,07,11,02,48,13.80
2014,07,11,02,49,13.80
2014,07,11,02,50,13.70
2014,07,11,02,51,13.70
2014,07,11,02,52,13.70
2014,07,11,02,53,13.70
2014,07,11,02,54,13.70
2014,07,11,02,55,13.60
2014,07,11,02,56,13.60
2014,07,11,02,57,13.60
2014,07,11,02,58,13.60
2014,07,11,02,59,13.60
2014,07,11,03,00,13.60
2014,07,11,03,01,13.60
2014,07,11,03,02,13.60
2014,07,11,03,03,13.60
2014,07,11,03,04,13.60
2014,07,11,03,05,13.60
2014,07,11,03,06,13.60
2014,07,11,03,07,13.60
2014,07,11,03,08,13.60
2014,07,11,03,09,13.60
2014,07,11,03,10,13.60
2014,07,11,03,11,13.60
2014,07,11,03,12,13.50
2014,07,11,03,13,13.50
2014,07,11,03,14,13.40
2014,07,11,03,15,13.40
2014,07,11,03,16,13.40
2014,07,11,03,17,13.40
2014,07,11,03,18,13.30
2014,07,11,03,19,13.30
2014,07,11,03,20,13.30
2014,07,11,03,21,13.30
2014,07,11,03,22,13.30
2014,07,11,03,23,13.30
2014,07,11,03,24,13.30
2014,07,11,03,25,13.30
2014,07,11,03,26,13.30
2014,07,11,03,27,13.20
2014,07,11,03,28,13.20
2014,07,11,03,29,13.20
2014,07,11,03,30,13.20
2014,07,11,03,31,13.20
2014,07,11,03,32,13.20
2014,07,11,03,33,13.20
2014,07,11,03,34,13.20
2014,07,11,03,35,13.20
2014,07,11,03,36,13.20
2014,07,11,03,37,13.20
2014,07,11,03,38,13.20
2014,07,11,03,39,13.10
2014,07,11,03,40,13.10
2014,07,11,03,41,13.10
2014,07,11,03,42,13.10
2014,07,11,03,43,13.10
2014,07,11,03,44,13.10
2014,07,11,03,45,13.10
2014,07,11,03,46,13.10
2014,07,11,03,47,13.20
2014,07,11,03,48,13.10
2014,07,11,03,49,13.10
2014,07,11,03,50,13.10
2014,07,11,03,51,13.20
2014,07,11,03,52,13.10
2014,07,11,03,53,13.10
2014,07,11,03,54,13.10
2014,07,11,03,55,13.10
2014,07,11,03,56,13.10
2014,07,11,03,57,13.10
2014,07,11,03,58,13.20
2014,07,11,03,59,13.20
2014,07,11,04,00,13.20
2014,07,11,04,01,13.20
2014,07,11,04,02,13.20
2014,07,11,04,03,13.30
2014,07,11,04,04,13.30
2014,07,11,04,05,13.30
2014,07,11,04,06,13.30
2014,07,11,04,07,13.30
2014,07,11,04,08,13.40
2014,07,11,04,09,13.40
2014,07,11,04,10,13.50
2014,07,11,04,11,13.50
2014,07,11,04,12,13.60
2014,07,11,04,13,13.60
2014,07,11,04,14,13.70
2014,07,11,04,15,13.70
2014,07,11,04,16,13.70
2014,07,11,04,17,13.70
2014,07,11,04,18,13.70
2014,07,11,04,19,13.70
2014,07,11,04,20,13.60
2014,07,11,04,21,13.60
2014,07,11,04,22,13.60
2014,07,11,04,23,13.60
2014,07,11,04,24,13.50
2014,07,11,04,25,13.50
2014,07,11,04,26,13.50
2014,07,11,04,27,13.40
2014,07,11,04,28,13.40
2014,07,11,04,29,13.40
2014,07,11,04,30,13.30
2014,07,11,04,31,13.30
2014,07,11,04,32,13.30
2014,07,11,04,33,13.20
2014,07,11,04,34,13.20
2014,07,11,04,35,13.20
2014,07,11,04,36,13.10
2014,07,11,04,37,13.10
2014,07,11,04,38,13.10
2014,07,11,04,39,13.00
2014,07,11,04,40,13.00
2014,07,11,04,41,12.90
2014,07,11,04,42,12.90
2014,07,11,04,43,12.90
2014,07,11,04,44,12.80
2014,07,11,04,45,12.80
2014,07,11,04,46,12.80
2014,07,11,04,47,12.80
2014,07,11,04,48,12.80
2014,07,11,04,49,12.80
2014,07,11,04,50,12.80
2014,07,11,04,51,12.80
2014,07,11,04,52,12.70
2014,07,11,04,53,12.70
2014,07,11,04,54,12.70
2014,07,11,04,55,12.70
2014,07,11,04,56,12.70
2014,07,11,04,57,12.70
2014,07,11,04,58,12.70
2014,07,11,04,59,12.70
2014,07,11,05,00,12.70
2014,07,11,05,01,12.60
2014,07,11,05,02,12.60
2014,07,11,05,03,12.60
2014,07,11,05,04,12.60
2014,07,11,05,05,12.60
2014,07,11,05,06,12.60
2014,07,11,05,07,12.60
2014,07,11,05,08,12.60
2014,07,11,05,09,12.60
2014,07,11,05,10,12.60
2014,07,11,05,11,12.60
2014,07,11,05,12,12.50
2014,07,11,05,13,12.50
2014,07,11,05,14,12.50
2014,07,11,05,15,12.60
2014,07,11,05,16,12.60
2014,07,11,05,17,12.60
2014,07,11,05,18,12.60
2014,07,11,05,19,12.60
2014,07,11,05,20,12.60
2014,07,11,05,21,12.60
2014,07,11,05,22,12.60
2014,07,11,05,23,12.60
2014,07,11,05,24,12.60
2014,07,11,05,25,12.60
2014,07,11,05,26,12.60
2014,07,11,05,27,12.60
2014,07,11,05,28,12.60
2014,07,11,05,29,12.60
2014,07,11,05,30,12.60
2014,07,11,05,31,12.60
2014,07,11,05,32,12.60
2014,07,11,05,33,12.60
2014,07,11,05,34,12.60
2014,07,11,05,35,12.60
2014,07,11,05,36,12.60
2014,07,11,05,37,12.60
2014,07,11,05,38,12.60
2014,07,11,05,39,12.60
2014,07,11,05,40,12.60
2014,07,11,05,41,12.60
2014,07,11,05,42,12.60
2014,07,11,05,43,12.60
2014,07,11,05,44,12.60
2014,07,11,05,45,12.60
2014,07,11,05,46,12.50
2014,07,11,05,47,12.50
2014,07,11,05,48,12.50
2014,07,11,05,49,12.50
2014,07,11,05,50,12.50
2014,07,11,05,51,12.50
2014,07,11,05,52,12.50
2014,07,11,05,53,12.50
2014,07,11,05,54,12.60
2014,07,11,05,55,12.60
2014,07,11,05,56,12.60
2014,07,11,05,57,12.60
2014,07,11,05,58,12.60
2014,07,11,05,59,12.60
2014,07,11,06,00,12.60
2014,07,11,06,01,12.60
2014,07,11,06,02,12.60
2014,07,11,06,03,12.60
2014,07,11,06,04,12.60
2014,07,11,06,05,12.60
2014,07,11,06,06,12.70
2014,07,11,06,07,12.70
2014,07,11,06,08,12.70
2014,07,11,06,09,12.70
2014,07,11,06,10,12.70
2014,07,11,06,11,12.70
2014,07,11,06,12,12.70
2014,07,11,06,13,12.70
2014,07,11,06,14,12.70
2014,07,11,06,15,12.70
2014,07,11,06,16,12.80
2014,07,11,06,17,12.80
2014,07,11,06,18,12.80
2014,07,11,06,19,12.80
2014,07,11,06,20,12.80
2014,07,11,06,21,12.90
2014,07,11,06,22,12.90
2014,07,11,06,23,12.90
2014,07,11,06,24,12.80
2014,07,11,06,25,12.80
2014,07,11,06,26,12.80
2014,07,11,06,27,12.80
2014,07,11,06,28,12.80
2014,07,11,06,29,12.70
2014,07,11,06,30,12.70
2014,07,11,06,31,12.70
2014,07,11,06,32,12.70
2014,07,11,06,33,12.70
2014,07,11,06,34,12.70
2014,07,11,06,35,12.70
2014,07,11,06,36,12.70
2014,07,11,06,37,12.70
2014,07,11,06,38,12.70
2014,07,11,06,39,12.70
2014,07,11,06,40,12.70
2014,07,11,06,41,12.70
2014,07,11,06,42,12.70
2014,07,11,06,43,12.80
2014,07,11,06,44,12.80
2014,07,11,06,45,12.80
2014,07,11,06,46,12.80
2014,07,11,06,47,12.90
2014,07,11,06,48,12.90
2014,07,11,06,49,12.90
2014,07,11,06,50,13.00
2014,07,11,06,51,13.00
2014,07,11,06,52,13.10
2014,07,11,06,53,13.20
2014,07,11,06,54,13.20
2014,07,11,06,55,13.30
2014,07,11,06,56,13.30
2014,07,11,06,57,13.30
2014,07,11,06,58,13.40
2014,07,11,06,59,13.40
2014,07,11,07,00,13.40
2014,07,11,07,01,13.40
2014,07,11,07,02,13.50
2014,07,11,07,03,13.50
2014,07,11,07,04,13.50
2014,07,11,07,05,13.60
2014,07,11,07,06,13.60
2014,07,11,07,07,13.60
2014,07,11,07,08,13.70
2014,07,11,07,09,13.70
2014,07,11,07,10,13.70
2014,07,11,07,11,13.80
2014,07,11,07,12,13.80
2014,07,11,07,13,13.80
2014,07,11,07,14,13.90
2014,07,11,07,15,13.90
2014,07,11,07,16,13.90
2014,07,11,07,17,14.00
2014,07,11,07,18,14.00
2014,07,11,07,19,14.10
2014,07,11,07,20,14.10
2014,07,11,07,21,14.20
2014,07,11,07,22,14.20
2014,07,11,07,23,14.20
2014,07,11,07,24,14.20
2014,07,11,07,25,14.30
2014,07,11,07,26,14.30
2014,07,11,07,27,14.30
2014,07,11,07,28,14.40
2014,07,11,07,29,14.40
2014,07,11,07,30,14.50
2014,07,11,07,31,14.50
2014,07,11,07,32,14.60
2014,07,11,07,33,14.70
2014,07,11,07,34,14.70
2014,07,11,07,35,14.80
2014,07,11,07,36,14.80
2014,07,11,07,37,14.90
2014,07,11,07,38,15.00
2014,07,11,07,39,15.00
2014,07,11,07,40,15.00
2014,07,11,07,41,15.00
2014,07,11,07,42,15.00
2014,07,11,07,43,15.00
2014,07,11,07,44,15.00
2014,07,11,07,45,15.10
2014,07,11,07,46,15.10
2014,07,11,07,47,15.20
2014,07,11,07,48,15.20
2014,07,11,07,49,15.30
2014,07,11,07,50,15.30
2014,07,11,07,51,15.40
2014,07,11,07,52,15.40
2014,07,11,07,53,15.50
2014,07,11,07,54,15.50
2014,07,11,07,55,15.60
2014,07,11,07,56,15.70
2014,07,11,07,57,15.70
2014,07,11,07,58,15.80
2014,07,11,07,59,15.80
2014,07,11,08,00,15.90
2014,07,11,08,01,15.90
2014,07,11,08,02,16.00
2014,07,11,08,03,16.00
2014,07,11,08,04,16.10
2014,07,11,08,05,16.20
2014,07,11,08,06,16.30
2014,07,11,08,07,16.30
2014,07,11,08,08,16.40
2014,07,11,08,09,16.50
2014,07,11,08,10,16.60
2014,07,11,08,11,16.70
2014,07,11,08,12,16.80
2014,07,11,08,13,16.90
2014,07,11,08,14,17.00
2014,07,11,08,15,17.10
2014,07,11,08,16,17.20
2014,07,11,08,17,17.30
2014,07,11,08,18,17.40
2014,07,11,08,19,17.50
2014,07,11,08,20,17.60
2014,07,11,08,21,17.70
2014,07,11,08,22,17.80
2014,07,11,08,23,17.90
2014,07,11,08,24,18.00
2014,07,11,08,25,18.00
2014,07,11,08,26,18.10
2014,07,11,08,27,18.20
2014,07,11,08,28,18.30
2014,07,11,08,29,18.40
2014,07,11,08,30,18.50
2014,07,11,08,31,18.60
2014,07,11,08,32,18.60
2014,07,11,08,33,18.70
2014,07,11,08,34,18.80
2014,07,11,08,35,18.90
2014,07,11,08,36,18.90
2014,07,11,08,37,19.00
2014,07,11,08,38,19.10
2014,07,11,08,39,19.20
2014,07,11,08,40,19.30
2014,07,11,08,41,19.40
2014,07,11,08,42,19.50
2014,07,11,08,43,19.60
2014,07,11,08,44,19.70
2014,07,11,08,45,19.80
2014,07,11,08,46,19.90
2014,07,11,08,47,20.00
2014,07,11,08,48,20.20
2014,07,11,08,49,20.30
2014,07,11,08,50,20.50
2014,07,11,08,51,20.60
2014,07,11,08,52,20.70
2014,07,11,08,53,20.80
2014,07,11,08,54,20.80
2014,07,11,08,55,20.90
2014,07,11,08,56,21.00
2014,07,11,08,57,21.10
2014,07,11,08,58,21.30
2014,07,11,08,59,21.40
2014,07,11,09,00,21.50
2014,07,11,09,01,21.50
2014,07,11,09,02,21.60
2014,07,11,09,03,21.60
2014,07,11,09,04,21.60
2014,07,11,09,05,21.70
2014,07,11,09,06,21.80
2014,07,11,09,07,21.80
2014,07,11,09,08,22.00
2014,07,11,09,09,22.10
2014,07,11,09,10,22.20
2014,07,11,09,11,22.30
2014,07,11,09,12,22.40
2014,07,11,09,13,22.40
2014,07,11,09,14,22.40
2014,07,11,09,15,22.40
2014,07,11,09,16,22.30
2014,07,11,09,17,22.30
2014,07,11,09,18,22.20
2014,07,11,09,19,22.20
2014,07,11,09,20,22.10
2014,07,11,09,21,22.10
2014,07,11,09,22,22.00
2014,07,11,09,23,22.00
2014,07,11,09,24,22.00
2014,07,11,09,25,21.90
2014,07,11,09,26,21.90
2014,07,11,09,27,21.80
2014,07,11,09,28,21.80
2014,07,11,09,29,21.80
2014,07,11,09,30,21.80
2014,07,11,09,31,21.80
2014,07,11,09,32,21.90
2014,07,11,09,33,21.90
2014,07,11,09,34,22.00
2014,07,11,09,35,22.00
2014,07,11,09,36,22.10
2014,07,11,09,37,22.10
2014,07,11,09,38,22.10
2014,07,11,09,39,22.10
2014,07,11,09,40,22.00
2014,07,11,09,41,22.00
2014,07,11,09,42,22.00
2014,07,11,09,43,22.00
2014,07,11,09,44,22.00
2014,07,11,09,45,22.00
2014,07,11,09,46,22.10
2014,07,11,09,47,22.10
2014,07,11,09,48,22.10
2014,07,11,09,49,22.10
2014,07,11,09,50,22.20
2014,07,11,09,51,22.20
2014,07,11,09,52,22.20
2014,07,11,09,53,22.20
2014,07,11,09,54,22.20
2014,07,11,09,55,22.20
2014,07,11,09,56,22.20
2014,07,11,09,57,22.30
2014,07,11,09,58,22.30
2014,07,11,09,59,22.40
2014,07,11,10,00,22.50
2014,07,11,10,01,22.60
2014,07,11,10,02,22.70
2014,07,11,10,03,22.80
2014,07,11,10,04,22.80
2014,07,11,10,05,23.00
2014,07,11,10,06,23.10
2014,07,11,10,07,23.10
2014,07,11,10,08,23.20
2014,07,11,10,09,23.30
2014,07,11,10,10,23.40
2014,07,11,10,11,23.40
2014,07,11,10,12,23.50
2014,07,11,10,13,23.60
2014,07,11,10,14,23.60
2014,07,11,10,15,23.60
2014,07,11,10,16,23.60
2014,07,11,10,17,23.60
2014,07,11,10,18,23.60
2014,07,11,10,19,23.60
2014,07,11,10,20,23.60
2014,07,11,10,21,23.60
2014,07,11,10,22,23.70
2014,07,11,10,23,23.70
2014,07,11,10,24,23.80
2014,07,11,10,25,23.90
2014,07,11,10,26,23.90
2014,07,11,10,27,24.00
2014,07,11,10,28,24.10
2014,07,11,10,29,24.00
2014,07,11,10,30,24.00
2014,07,11,10,31,23.90
2014,07,11,10,32,23.80
2014,07,11,10,33,23.80
2014,07,11,10,34,23.80
2014,07,11,10,35,23.80
2014,07,11,10,36,23.80
2014,07,11,10,37,23.80
2014,07,11,10,38,23.80
2014,07,11,10,39,23.80
2014,07,11,10,40,23.70
2014,07,11,10,41,23.70
2014,07,11,10,42,23.70
2014,07,11,10,43,23.70
2014,07,11,10,44,23.70
2014,07,11,10,45,23.80
2014,07,11,10,46,23.80
2014,07,11,10,47,23.90
2014,07,11,10,48,24.00
2014,07,11,10,49,24.10
2014,07,11,10,50,24.20
2014,07,11,10,51,24.20
2014,07,11,10,52,24.30
2014,07,11,10,53,24.40
2014,07,11,10,54,24.40
2014,07,11,10,55,24.40
2014,07,11,10,56,24.50
2014,07,11,10,57,24.50
2014,07,11,10,58,24.50
2014,07,11,10,59,24.50
2014,07,11,11,00,24.60
2014,07,11,11,01,24.50
2014,07,11,11,02,24.40
2014,07,11,11,03,24.30
2014,07,11,11,04,24.30
2014,07,11,11,05,24.20
2014,07,11,11,06,24.20
2014,07,11,11,07,24.10
2014,07,11,11,08,24.10
2014,07,11,11,09,24.00
2014,07,11,11,10,23.90
2014,07,11,11,11,23.90
2014,07,11,11,12,23.80
2014,07,11,11,13,23.60
2014,07,11,11,14,23.50
2014,07,11,11,15,23.40
2014,07,11,11,16,23.40
2014,07,11,11,17,23.40
2014,07,11,11,18,23.50
2014,07,11,11,19,23.60
2014,07,11,11,20,23.80
2014,07,11,11,21,23.90
2014,07,11,11,22,24.00
2014,07,11,11,23,24.10
2014,07,11,11,24,24.20
2014,07,11,11,25,24.30
2014,07,11,11,26,24.30
2014,07,11,11,27,24.40
2014,07,11,11,28,24.40
2014,07,11,11,29,24.30
2014,07,11,11,30,24.00
2014,07,11,11,31,23.70
2014,07,11,11,32,23.50
2014,07,11,11,33,23.40
2014,07,11,11,34,23.10
2014,07,11,11,35,22.90
2014,07,11,11,36,22.70
2014,07,11,11,37,22.50
2014,07,11,11,38,22.40
2014,07,11,11,39,22.30
2014,07,11,11,40,22.10
2014,07,11,11,41,21.90
2014,07,11,11,42,21.80
2014,07,11,11,43,21.70
2014,07,11,11,44,21.60
2014,07,11,11,45,21.60
2014,07,11,11,46,21.70
2014,07,11,11,47,21.70
2014,07,11,11,48,21.80
2014,07,11,11,49,21.80
2014,07,11,11,50,21.90
2014,07,11,11,51,22.00
2014,07,11,11,52,22.10
2014,07,11,11,53,22.20
2014,07,11,11,54,22.20
2014,07,11,11,55,22.10
2014,07,11,11,56,22.10
2014,07,11,11,57,22.10
2014,07,11,11,58,22.20
2014,07,11,11,59,22.30
2014,07,11,12,00,22.40
2014,07,11,12,01,22.60
2014,07,11,12,02,22.70
2014,07,11,12,03,22.90
2014,07,11,12,04,23.00
2014,07,11,12,05,23.20
2014,07,11,12,06,23.30
2014,07,11,12,07,23.40
2014,07,11,12,08,23.50
2014,07,11,12,09,23.50
2014,07,11,12,10,23.60
2014,07,11,12,11,23.70
2014,07,11,12,12,23.80
2014,07,11,12,13,23.80
2014,07,11,12,14,23.90
2014,07,11,12,15,24.00
2014,07,11,12,16,24.00
2014,07,11,12,17,24.10
2014,07,11,12,18,24.20
2014,07,11,12,19,24.30
2014,07,11,12,20,24.30
2014,07,11,12,21,24.40
2014,07,11,12,22,24.50
2014,07,11,12,23,24.60
2014,07,11,12,24,24.60
2014,07,11,12,25,24.70
2014,07,11,12,26,24.80
2014,07,11,12,27,24.80
2014,07,11,12,28,24.80
2014,07,11,12,29,24.80
2014,07,11,12,30,24.80
2014,07,11,12,31,24.70
2014,07,11,12,32,24.60
2014,07,11,12,33,24.60
2014,07,11,12,34,24.60
2014,07,11,12,35,24.50
2014,07,11,12,36,24.40
2014,07,11,12,37,24.30
2014,07,11,12,38,24.30
2014,07,11,12,39,24.30
2014,07,11,12,40,24.30
2014,07,11,12,41,24.30
2014,07,11,12,42,24.20
2014,07,11,12,43,24.10
2014,07,11,12,44,23.90
2014,07,11,12,45,23.80
2014,07,11,12,46,23.70
2014,07,11,12,47,23.60
2014,07,11,12,48,23.60
2014,07,11,12,49,23.50
2014,07,11,12,50,23.60
2014,07,11,12,51,23.60
2014,07,11,12,52,23.50
2014,07,11,12,53,23.40
2014,07,11,12,54,23.40
2014,07,11,12,55,23.50
2014,07,11,12,56,23.50
2014,07,11,12,57,23.30
2014,07,11,12,58,23.20
2014,07,11,12,59,23.10
2014,07,11,13,00,23.00
2014,07,11,13,01,22.90
2014,07,11,13,02,22.90
2014,07,11,13,03,22.90
2014,07,11,13,04,22.80
2014,07,11,13,05,22.80
2014,07,11,13,06,22.90
2014,07,11,13,07,23.00
2014,07,11,13,08,23.10
2014,07,11,13,09,23.20
2014,07,11,13,10,23.30
2014,07,11,13,11,23.30
2014,07,11,13,12,23.30
2014,07,11,13,13,23.30
2014,07,11,13,14,23.30
2014,07,11,13,15,23.40
2014,07,11,13,16,23.40
2014,07,11,13,17,23.40
2014,07,11,13,18,23.50
2014,07,11,13,19,23.50
2014,07,11,13,20,23.50
2014,07,11,13,21,23.40
2014,07,11,13,22,23.40
2014,07,11,13,23,23.50
2014,07,11,13,24,23.50
2014,07,11,13,25,23.60
2014,07,11,13,26,23.70
2014,07,11,13,27,23.80
2014,07,11,13,28,23.80
2014,07,11,13,29,23.90
2014,07,11,13,30,23.90
2014,07,11,13,31,24.00
2014,07,11,13,32,24.00
2014,07,11,13,33,24.00
2014,07,11,13,34,24.00
2014,07,11,13,35,24.10
2014,07,11,13,36,24.20
2014,07,11,13,37,24.40
2014,07,11,13,38,24.50
2014,07,11,13,39,24.60
2014,07,11,13,40,24.60
2014,07,11,13,41,24.60
2014,07,11,13,42,24.60
2014,07,11,13,43,24.60
2014,07,11,13,44,24.60
2014,07,11,13,45,24.60
2014,07,11,13,46,24.60
2014,07,11,13,47,24.70
2014,07,11,13,48,24.80
2014,07,11,13,49,24.90
2014,07,11,13,50,24.90
2014,07,11,13,51,25.00
2014,07,11,13,52,25.00
2014,07,11,13,53,25.00
2014,07,11,13,54,25.10
2014,07,11,13,55,25.00
2014,07,11,13,56,24.90
2014,07,11,13,57,24.90
2014,07,11,13,58,24.90
2014,07,11,13,59,24.90
2014,07,11,14,00,25.00
2014,07,11,14,01,25.10
2014,07,11,14,02,25.20
2014,07,11,14,03,25.20
2014,07,11,14,04,25.20
2014,07,11,14,05,25.20
2014,07,11,14,06,25.20
2014,07,11,14,07,25.20
2014,07,11,14,08,25.30
2014,07,11,14,09,25.30
2014,07,11,14,10,25.30
2014,07,11,14,11,25.30
2014,07,11,14,12,25.20
2014,07,11,14,13,25.30
2014,07,11,14,14,25.30
2014,07,11,14,15,25.20
2014,07,11,14,16,25.20
2014,07,11,14,17,25.20
2014,07,11,14,18,25.20
2014,07,11,14,19,25.20
2014,07,11,14,20,25.20
2014,07,11,14,21,25.30
2014,07,11,14,22,25.40
2014,07,11,14,23,25.50
2014,07,11,14,24,25.50
2014,07,11,14,25,25.60
2014,07,11,14,26,25.50
2014,07,11,14,27,25.50
2014,07,11,14,28,25.50
2014,07,11,14,29,25.50
2014,07,11,14,30,25.50
2014,07,11,14,31,25.40
2014,07,11,14,32,25.50
2014,07,11,14,33,25.50
2014,07,11,14,34,25.60
2014,07,11,14,35,25.60
2014,07,11,14,36,25.70
2014,07,11,14,37,25.70
2014,07,11,14,38,25.70
2014,07,11,14,39,25.70
2014,07,11,14,40,25.70
2014,07,11,14,41,25.80
2014,07,11,14,42,25.90
2014,07,11,14,43,25.90
2014,07,11,14,44,26.00
2014,07,11,14,45,26.10
2014,07,11,14,46,26.20
2014,07,11,14,47,26.30
2014,07,11,14,48,26.30
2014,07,11,14,49,26.30
2014,07,11,14,50,26.20
2014,07,11,14,51,26.10
2014,07,11,14,52,26.10
2014,07,11,14,53,26.00
2014,07,11,14,54,25.90
2014,07,11,14,55,25.90
2014,07,11,14,56,25.80
2014,07,11,14,57,25.80
2014,07,11,14,58,25.70
2014,07,11,14,59,25.70
2014,07,11,15,00,25.70
2014,07,11,15,01,25.80
2014,07,11,15,02,25.80
2014,07,11,15,03,25.80
2014,07,11,15,04,25.70
2014,07,11,15,05,25.60
2014,07,11,15,06,25.60
2014,07,11,15,07,25.60
2014,07,11,15,08,25.60
2014,07,11,15,09,25.60
2014,07,11,15,10,25.60
2014,07,11,15,11,25.50
2014,07,11,15,12,25.40
2014,07,11,15,13,25.30
2014,07,11,15,14,25.30
2014,07,11,15,15,25.30
2014,07,11,15,16,25.20
2014,07,11,15,17,25.20
2014,07,11,15,18,25.20
2014,07,11,15,19,25.30
2014,07,11,15,20,25.40
2014,07,11,15,21,25.50
2014,07,11,15,22,25.50
2014,07,11,15,23,25.30
2014,07,11,15,24,25.30
2014,07,11,15,25,25.20
2014,07,11,15,26,25.20
2014,07,11,15,27,25.20
2014,07,11,15,28,25.20
2014,07,11,15,29,25.10
2014,07,11,15,30,25.10
2014,07,11,15,31,25.10
2014,07,11,15,32,25.10
2014,07,11,15,33,25.10
2014,07,11,15,34,25.10
2014,07,11,15,35,25.20
2014,07,11,15,36,25.20
2014,07,11,15,37,25.10
2014,07,11,15,38,25.10
2014,07,11,15,39,25.10
2014,07,11,15,40,25.00
2014,07,11,15,41,25.00
2014,07,11,15,42,24.90
2014,07,11,15,43,24.90
2014,07,11,15,44,24.90
2014,07,11,15,45,24.90
2014,07,11,15,46,25.00
2014,07,11,15,47,25.10
2014,07,11,15,48,25.10
2014,07,11,15,49,25.20
2014,07,11,15,50,25.20
2014,07,11,15,51,25.20
2014,07,11,15,52,25.20
2014,07,11,15,53,25.20
2014,07,11,15,54,25.20
2014,07,11,15,55,25.10
2014,07,11,15,56,25.20
2014,07,11,15,57,25.20
2014,07,11,15,58,25.20
2014,07,11,15,59,25.20
2014,07,11,16,00,25.30
2014,07,11,16,01,25.30
2014,07,11,16,02,25.40
2014,07,11,16,03,25.30
2014,07,11,16,04,25.30
2014,07,11,16,05,25.40
2014,07,11,16,06,25.40
2014,07,11,16,07,25.50
2014,07,11,16,08,25.50
2014,07,11,16,09,25.60
2014,07,11,16,10,25.50
2014,07,11,16,11,25.50
2014,07,11,16,12,25.50
2014,07,11,16,13,25.50
2014,07,11,16,14,25.50
2014,07,11,16,15,25.40
2014,07,11,16,16,25.40
2014,07,11,16,17,25.40
2014,07,11,16,18,25.40
2014,07,11,16,19,25.40
2014,07,11,16,20,25.40
2014,07,11,16,21,25.50
2014,07,11,16,22,25.60
2014,07,11,16,23,25.60
2014,07,11,16,24,25.60
2014,07,11,16,25,25.60
2014,07,11,16,26,25.60
2014,07,11,16,27,25.60
2014,07,11,16,28,25.50
2014,07,11,16,29,25.60
2014,07,11,16,30,25.60
2014,07,11,16,31,25.70
2014,07,11,16,32,25.60
2014,07,11,16,33,25.50
2014,07,11,16,34,25.50
2014,07,11,16,35,25.60
2014,07,11,16,36,25.60
2014,07,11,16,37,25.70
2014,07,11,16,38,25.80
2014,07,11,16,39,25.80
2014,07,11,16,40,25.70
2014,07,11,16,41,25.70
2014,07,11,16,42,25.70
2014,07,11,16,43,25.70
2014,07,11,16,44,25.70
2014,07,11,16,45,25.70
2014,07,11,16,46,25.80
2014,07,11,16,47,25.80
2014,07,11,16,48,25.80
2014,07,11,16,49,25.80
2014,07,11,16,50,25.70
2014,07,11,16,51,25.60
2014,07,11,16,52,25.50
2014,07,11,16,53,25.50
2014,07,11,16,54,25.50
2014,07,11,16,55,25.50
2014,07,11,16,56,25.50
2014,07,11,16,57,25.60
2014,07,11,16,58,25.60
2014,07,11,16,59,25.60
2014,07,11,17,00,25.60
2014,07,11,17,01,25.70
2014,07,11,17,02,25.70
2014,07,11,17,03,25.70
2014,07,11,17,04,25.60
2014,07,11,17,05,25.60
2014,07,11,17,06,25.60
2014,07,11,17,07,25.70
2014,07,11,17,08,25.70
2014,07,11,17,09,25.60
2014,07,11,17,10,25.60
2014,07,11,17,11,25.60
2014,07,11,17,12,25.60
2014,07,11,17,13,25.70
2014,07,11,17,14,25.70
2014,07,11,17,15,25.80
2014,07,11,17,16,25.80
2014,07,11,17,17,25.80
2014,07,11,17,18,25.80
2014,07,11,17,19,25.70